KF0RY-10 Weather Reports


Display with metric or nautical units.
time (UTC)temp
F
wind
direction
speed
MPH
gust
MPH
rain 1hr
in
rain 24hr
in
rain mn
in
humidity
%
barometer
mb
20260831010035 71 298 1.0 4.0 0.00 0.10 0.00 49 1017.1
20260831005517 72 305 0.0 2.0 0.00 0.11 0.00 49 1017.2
20260831005037 72 301 1.0 3.0 0.00 0.11 0.00 49 1017.2
20260831004516 72 343 1.0 3.0 0.00 0.11 0.00 50 1017.3
20260831004019 72 303 1.0 4.0 0.00 0.11 0.00 49 1017.3
20260831003521 72 287 1.0 4.0 0.00 0.11 0.00 49 1017.3
20260831003016 72 288 1.0 3.0 0.00 0.11 0.00 49 1017.3
20260831002537 72 315 1.0 3.0 0.00 0.11 0.00 48 1017.3
20260831002020 73 291 2.0 5.0 0.00 0.11 0.00 46 1017.3
20260831001521 74 326 1.0 3.0 0.00 0.11 0.00 44 1017.3
20260831001017 74 263 1.0 3.0 0.00 0.11 0.00 44 1017.4
20260831000520 74 329 1.0 3.0 0.00 0.11 0.00 45 1017.4
20260831000040 73 256 1.0 3.0 0.00 0.11 0.00 45 1017.5
20260830235517 72 320 1.0 3.0 0.00 0.11 0.00 47 1017.5
20260830235017 72 301 1.0 3.0 0.00 0.11 0.00 47 1017.6
20260830234525 72 344 1.0 3.0 0.00 0.11 0.00 47 1017.6
20260830234019 72 335 1.0 3.0 0.00 0.11 0.00 46 1017.6
20260830233519 72 310 1.0 3.0 0.00 0.11 0.00 46 1017.7
20260830233017 72 307 1.0 4.0 0.00 0.11 0.00 45 1017.7
20260830232525 71 134 1.0 3.0 0.00 0.11 0.00 47 1017.7
20260830232020 71 144 3.0 5.0 0.00 0.11 0.00 47 1017.7
20260830231520 72 140 3.0 5.0 0.00 0.11 0.00 47 1017.7
20260830231021 72 98 2.0 5.0 0.00 0.11 0.00 48 1017.7
20260830230521 71 71 2.0 5.0 0.00 0.11 0.00 49 1017.8
20260830230021 71 200 2.0 4.0 0.00 0.11 0.00 50 1017.8
20260830225521 71 186 2.0 5.0 0.00 0.11 0.00 50 1017.8
20260830225020 72 138 3.0 7.0 0.00 0.11 0.00 50 1017.8
20260830224518 72 70 2.0 6.0 0.00 0.11 0.00 49 1017.9
20260830224018 72 97 1.0 4.0 0.00 0.11 0.00 49 1018.0
20260830223518 72 254 1.0 4.0 0.00 0.11 0.00 49 1018.1
20260830223041 72 230 2.0 4.0 0.00 0.11 0.00 50 1018.2
20260830222522 72 302 2.0 5.0 0.00 0.11 0.00 50 1018.3
20260830222018 71 12 2.0 4.0 0.00 0.11 0.00 50 1018.4
20260830221520 71 263 1.0 4.0 0.00 0.11 0.00 50 1018.4
20260830221016 69 330 1.0 4.0 0.00 0.11 0.00 51 1018.4
20260830220539 69 140 2.0 7.0 0.00 0.11 0.00 51 1018.3
20260830220056 70 195 2.0 7.0 0.00 0.11 0.00 49 1018.3
20260830215519 70 174 2.0 7.0 0.00 0.11 0.00 49 1018.3
20260830215020 71 173 3.0 6.0 0.00 0.11 0.00 47 1018.3
20260830214016 69 232 2.0 5.0 0.00 0.11 0.00 51 1018.5
20260830213516 69 151 3.0 6.0 0.00 0.11 0.00 48 1018.5
20260830213016 69 171 3.0 6.0 0.00 0.11 0.00 48 1018.6
20260830212516 69 144 2.0 6.0 0.00 0.11 0.00 48 1018.6
20260830212018 69 145 3.0 7.0 0.00 0.11 0.00 48 1018.6
20260830211516 69 167 3.0 6.0 0.00 0.11 0.00 49 1018.7
20260830211017 69 145 4.0 7.0 0.00 0.11 0.00 49 1018.8
20260830210518 69 155 3.0 6.0 0.00 0.11 0.00 51 1018.8
20260830210018 69 0.0 0.0 0.00 0.11 0.00 50 1018.8
20260830205540 68 0.0 0.0 0.00 0.11 0.00 50 1018.9
20260830205040 68 154 5.0 7.0 0.00 0.11 0.00 51 1018.8
20260830204517 68 0.0 0.0 0.00 0.11 0.00 51 1018.9
20260830204032 68 0.0 0.0 0.00 0.11 0.00 51 1018.9
20260830203517 68 0.0 0.0 0.00 0.11 0.00 50 1018.9
20260830203018 68 0.0 0.0 0.00 0.11 0.00 53 1019.0
20260830202520 68 201 3.0 7.0 0.00 0.11 0.00 53 1019.1
20260830202017 68 0.0 0.0 0.00 0.11 0.00 53 1019.1
20260830201520 67 0.0 0.0 0.00 0.11 0.00 58 1019.1
20260830201024 67 0.0 0.0 0.00 0.11 0.00 58 1019.2
20260830200519 67 0.0 0.0 0.00 0.11 0.00 56 1019.2
20260830200019 67 0.0 0.0 0.00 0.11 0.00 56 1019.3
20260830195518 66 180 4.0 8.0 0.00 0.11 0.00 57 1019.3
20260830195018 66 145 4.0 8.0 0.00 0.11 0.00 57 1019.2
20260830194519 66 150 4.0 8.0 0.00 0.11 0.00 59 1019.3
20260830194018 66 137 3.0 6.0 0.00 0.11 0.00 58 1019.4
20260830193539 66 149 3.0 8.0 0.00 0.11 0.00 58 1019.4
20260830193019 66 158 4.0 7.0 0.00 0.11 0.00 59 1019.4
20260830192545 66 134 5.0 9.0 0.00 0.11 0.00 59 1019.4
20260830192018 66 149 3.0 6.0 0.00 0.11 0.00 60 1019.4
20260830191600 66 171 4.0 8.0 0.00 0.11 0.00 60 1019.4
20260830191020 66 138 3.0 6.0 0.00 0.11 0.00 61 1019.5
20260830190519 66 163 3.0 5.0 0.00 0.11 0.00 60 1019.6
20260830190019 66 149 3.0 6.0 0.00 0.11 0.00 61 1019.6
20260830185523 65 163 3.0 6.0 0.00 0.11 0.00 64 1019.7
20260830185020 65 150 4.0 8.0 0.00 0.11 0.00 64 1019.7
20260830184519 64 163 3.0 7.0 0.00 0.11 0.00 65 1019.7
20260830184016 64 154 4.0 7.0 0.00 0.11 0.00 64 1019.6
20260830183516 64 184 3.0 7.0 0.00 0.11 0.00 65 1019.6
20260830183038 64 181 3.0 8.0 0.00 0.11 0.00 66 1019.6
20260830182517 64 162 4.0 7.0 0.00 0.11 0.00 65 1019.6
20260830182017 63 162 4.0 7.0 0.00 0.11 0.00 67 1019.5
20260830181541 63 133 5.0 9.0 0.00 0.11 0.00 67 1019.5
20260830181038 63 141 6.0 9.0 0.00 0.11 0.00 67 1019.5
20260830180519 63 139 4.0 7.0 0.00 0.11 0.00 67 1019.6
20260830180038 63 141 5.0 8.0 0.00 0.11 0.00 68 1019.5
20260830175518 63 162 4.0 9.0 0.00 0.11 0.00 67 1019.6
20260830175019 63 178 3.0 7.0 0.00 0.11 0.00 67 1019.6
20260830174518 63 162 5.0 8.0 0.00 0.11 0.00 68 1019.6
20260830174017 62 166 3.0 6.0 0.00 0.11 0.00 69 1019.6
20260830173518 62 146 4.0 6.0 0.00 0.11 0.00 70 1019.6
20260830173019 62 164 4.0 7.0 0.00 0.11 0.00 70 1019.6
20260830172518 62 151 4.0 8.0 0.00 0.11 0.00 70 1019.6
20260830172020 61 136 3.0 8.0 0.00 0.11 0.00 70 1019.6
20260830171517 61 159 4.0 7.0 0.00 0.11 0.00 71 1019.5
20260830171020 61 152 4.0 8.0 0.00 0.11 0.00 71 1019.5
20260830170518 61 167 3.0 8.0 0.00 0.11 0.00 71 1019.5
20260830170019 61 153 4.0 7.0 0.00 0.11 0.00 71 1019.5
20260830165522 61 158 3.0 7.0 0.00 0.11 0.00 71 1019.5
20260830165018 61 149 5.0 8.0 0.00 0.11 0.00 71 1019.5
20260830164518 61 151 5.0 9.0 0.00 0.11 0.00 71 1019.5
20260830164021 61 168 4.0 8.0 0.00 0.11 0.00 71 1019.5
20260830163519 61 155 4.0 9.0 0.00 0.11 0.00 71 1019.6
20260830163022 61 151 4.0 8.0 0.00 0.11 0.00 72 1019.6
20260830162521 60 157 4.0 8.0 0.00 0.11 0.00 73 1019.6
20260830162023 60 157 5.0 9.0 0.00 0.11 0.00 73 1019.6
20260830161539 60 151 4.0 7.0 0.00 0.11 0.00 74 1019.6
20260830161018 60 168 4.0 6.0 0.00 0.11 0.00 74 1019.6
20260830160518 60 176 4.0 8.0 0.00 0.11 0.00 74 1019.6
20260830160018 60 188 4.0 7.0 0.00 0.11 0.00 74 1019.6
20260830155524 60 156 3.0 6.0 0.00 0.11 0.00 74 1019.5
20260830155018 60 159 4.0 8.0 0.00 0.11 0.00 74 1019.5
20260830154520 60 154 4.0 7.0 0.00 0.11 0.00 75 1019.5
20260830154020 60 166 3.0 7.0 0.00 0.11 0.00 75 1019.5
20260830153519 60 190 3.0 8.0 0.00 0.11 0.00 74 1019.5
20260830153022 60 187 4.0 7.0 0.00 0.11 0.00 74 1019.5
20260830152522 60 204 4.0 7.0 0.00 0.11 0.00 75 1019.4
20260830152018 60 194 3.0 6.0 0.00 0.11 0.00 76 1019.4
20260830151519 60 191 3.0 6.0 0.00 0.11 0.00 76 1019.5
20260830151017 59 206 2.0 6.0 0.00 0.11 0.00 76 1019.4
20260830150517 59 208 3.0 6.0 0.00 0.11 0.00 76 1019.5
20260830150023 59 179 3.0 6.0 0.00 0.11 0.00 76 1019.5
20260830145539 59 178 1.0 4.0 0.00 0.11 0.00 77 1019.5
20260830145017 58 203 2.0 4.0 0.00 0.12 0.00 79 1019.4
20260830144523 58 248 1.0 3.0 0.00 0.12 0.00 79 1019.5
20260830144019 58 228 1.0 4.0 0.00 0.12 0.00 79 1019.4
20260830143518 57 192 1.0 4.0 0.00 0.13 0.00 80 1019.4
20260830143018 57 216 1.0 3.0 0.00 0.13 0.00 81 1019.3
20260830142522 57 185 2.0 4.0 0.00 0.13 0.00 81 1019.2
20260830142020 57 224 2.0 3.0 0.00 0.14 0.00 81 1019.2
20260830141517 57 186 1.0 3.0 0.00 0.15 0.00 81 1019.2
20260830141020 57 239 0.0 3.0 0.00 0.15 0.00 81 1019.1
20260830140520 58 232 1.0 2.0 0.00 0.15 0.00 81 1019.1
20260830140017 58 222 1.0 3.0 0.00 0.15 0.00 80 1019.0
20260830135539 58 161 4.0 8.0 0.00 0.15 0.00 80 1018.9
20260830135038 57 154 2.0 4.0 0.00 0.15 0.00 80 1019.0
20260830134543 57 162 3.0 6.0 0.00 0.15 0.00 80 1019.0
20260830134020 57 148 3.0 6.0 0.00 0.15 0.00 80 1019.0
20260830133517 57 181 3.0 6.0 0.00 0.15 0.00 80 1019.0
20260830133139 57 168 3.0 7.0 0.00 0.15 0.00 80 1018.9
20260830132518 58 181 2.0 4.0 0.00 0.15 0.00 80 1018.9
20260830132038 58 159 3.0 6.0 0.00 0.15 0.00 79 1018.9
20260830131518 58 156 3.0 8.0 0.00 0.15 0.00 80 1018.9
20260830131018 58 152 3.0 6.0 0.00 0.15 0.00 80 1018.9
20260830130518 58 152 3.0 5.0 0.00 0.16 0.00 80 1018.9
20260830130019 58 166 1.0 4.0 0.00 0.16 0.00 81 1019.0
20260830125518 57 146 2.0 5.0 0.00 0.16 0.00 80 1018.9
20260830125018 57 159 2.0 5.0 0.00 0.17 0.00 80 1018.9
20260830124519 58 147 2.0 6.0 0.00 0.17 0.00 80 1018.8
20260830124018 58 144 3.0 7.0 0.00 0.17 0.00 81 1018.8
20260830123518 58 149 3.0 7.0 0.00 0.17 0.00 80 1018.8
20260830123038 58 155 3.0 6.0 0.00 0.17 0.00 80 1018.8
20260830122519 58 171 4.0 7.0 0.00 0.17 0.00 80 1018.9
20260830122018 58 168 4.0 8.0 0.00 0.17 0.00 80 1019.0
20260830121519 58 162 4.0 7.0 0.00 0.17 0.00 80 1019.0
20260830121038 58 167 3.0 5.0 0.00 0.17 0.00 80 1019.0
20260830120519 58 159 3.0 6.0 0.00 0.17 0.00 80 1019.0
20260830120018 58 154 3.0 6.0 0.00 0.17 0.00 81 1019.0
20260830115517 58 150 3.0 6.0 0.00 0.17 0.00 81 1019.0
20260830115017 58 143 3.0 5.0 0.00 0.17 0.00 81 1019.0
20260830114537 58 169 3.0 5.0 0.00 0.17 0.00 81 1019.1
20260830114036 58 163 2.0 4.0 0.00 0.17 0.00 81 1019.0
20260830113516 58 154 3.0 4.0 0.00 0.17 0.00 81 1019.0
20260830113029 58 159 3.0 6.0 0.00 0.17 0.00 80 1018.9
20260830112517 58 147 3.0 7.0 0.00 0.17 0.00 81 1018.9
20260830112020 58 147 3.0 5.0 0.00 0.17 0.00 82 1018.9
20260830111517 58 152 2.0 5.0 0.00 0.17 0.00 82 1018.8
20260830111017 58 140 3.0 5.0 0.00 0.17 0.00 82 1018.8
20260830110517 58 154 2.0 6.0 0.00 0.17 0.00 82 1018.8
20260830110017 58 155 2.0 5.0 0.00 0.17 0.00 82 1018.7
20260830105519 58 187 1.0 3.0 0.00 0.17 0.00 82 1018.7
20260830105018 58 167 1.0 4.0 0.00 0.17 0.00 81 1018.8
20260830104517 58 171 2.0 4.0 0.00 0.17 0.00 81 1018.8
20260830104018 58 158 2.0 5.0 0.00 0.17 0.00 81 1018.9
20260830103519 58 149 2.0 4.0 0.00 0.17 0.00 80 1018.9
20260830103017 58 143 2.0 5.0 0.00 0.17 0.00 80 1018.9
20260830102519 58 145 3.0 4.0 0.00 0.17 0.00 80 1018.9
20260830102038 58 156 2.0 4.0 0.00 0.18 0.00 81 1018.9
20260830101518 58 162 2.0 3.0 0.00 0.19 0.00 80 1018.9
20260830101017 58 175 1.0 4.0 0.00 0.19 0.00 80 1018.8
20260830100521 58 165 2.0 5.0 0.00 0.23 0.00 80 1018.8
20260830100038 58 157 2.0 5.0 0.00 0.38 0.00 80 1018.8
20260830095518 58 160 3.0 5.0 0.00 0.47 0.00 80 1018.8
20260830095018 58 146 2.0 5.0 0.00 0.48 0.00 80 1018.8
20260830094517 58 166 2.0 3.0 0.00 0.48 0.00 80 1018.7
20260830094018 58 155 3.0 7.0 0.00 0.48 0.00 79 1018.7
20260830093518 58 170 2.0 6.0 0.00 0.48 0.00 80 1018.7
20260830093038 58 153 3.0 6.0 0.00 0.48 0.00 79 1018.7
20260830092604 58 165 2.0 4.0 0.00 0.49 0.00 80 1018.7
20260830092042 58 144 2.0 7.0 0.00 0.49 0.00 80 1018.7
20260830091523 58 153 1.0 8.0 0.00 0.49 0.00 79 1018.7
20260830091018 58 200 0.0 1.0 0.00 0.49 0.00 79 1018.7
20260830090524 58 218 1.0 3.0 0.00 0.49 0.00 79 1018.7
20260830090018 58 206 0.0 2.0 0.00 0.49 0.00 79 1018.7
20260830085518 58 180 1.0 3.0 0.00 0.49 0.00 79 1018.7
20260830085018 58 192 1.0 3.0 0.00 0.49 0.00 80 1018.7
20260830084518 58 197 1.0 3.0 0.00 0.49 0.00 80 1018.8
20260830084018 58 191 1.0 4.0 0.00 0.49 0.00 80 1018.7
20260830083517 58 209 2.0 5.0 0.00 0.49 0.00 80 1018.7
20260830083018 58 181 1.0 4.0 0.00 0.49 0.00 79 1018.7
20260830082520 58 185 1.0 2.0 0.00 0.49 0.00 79 1018.7
20260830082017 58 183 3.0 5.0 0.00 0.49 0.00 79 1018.7
20260830081518 58 175 2.0 4.0 0.00 0.49 0.00 79 1018.6
20260830081017 58 190 1.0 4.0 0.00 0.49 0.00 79 1018.6
20260830080516 58 191 1.0 3.0 0.00 0.49 0.00 79 1018.6
20260830080019 58 202 2.0 4.0 0.00 0.49 0.00 79 1018.6
20260830075517 58 181 2.0 4.0 0.00 0.49 0.00 80 1018.5
20260830075017 59 183 1.0 3.0 0.00 0.49 0.00 79 1018.5
20260830074523 59 195 2.0 4.0 0.00 0.49 0.00 79 1018.4
20260830074019 59 173 2.0 5.0 0.00 0.49 0.00 79 1018.4
20260830073539 59 198 2.0 4.0 0.00 0.49 0.00 78 1018.4
20260830073037 59 213 1.0 4.0 0.00 0.49 0.00 79 1018.4
20260830072517 59 201 1.0 3.0 0.00 0.49 0.00 79 1018.4
20260830072017 59 195 1.0 4.0 0.00 0.49 0.00 79 1018.3
20260830071517 59 190 1.0 3.0 0.00 0.49 0.00 78 1018.3
20260830071019 59 183 1.0 3.0 0.00 0.49 0.00 78 1018.2
20260830070517 59 181 1.0 4.0 0.00 0.49 0.00 77 1018.2
20260830070017 60 195 1.0 3.0 0.00 0.49 0.00 77 1018.2
20260830065517 60 195 2.0 5.0 0.00 0.49 0.49 76 1018.2
20260830065017 60 182 3.0 5.0 0.00 0.49 0.49 76 1018.1
20260830064517 60 180 3.0 5.0 0.00 0.49 0.49 75 1018.1
20260830064037 60 186 2.0 4.0 0.00 0.49 0.49 75 1018.1
20260830063520 60 184 1.0 5.0 0.00 0.49 0.49 76 1018.0
20260830063037 60 176 1.0 3.0 0.00 0.49 0.49 75 1018.0
20260830062517 60 198 1.0 3.0 0.00 0.49 0.49 75 1018.0
20260830062017 60 193 1.0 3.0 0.00 0.49 0.49 74 1018.0
20260830061518 60 186 1.0 2.0 0.00 0.49 0.49 74 1018.0
20260830061018 61 192 1.0 3.0 0.00 0.49 0.49 73 1018.0
20260830060518 61 190 1.0 3.0 0.00 0.49 0.49 73 1017.9
20260830060018 61 187 2.0 5.0 0.00 0.49 0.49 72 1017.9
20260830055518 61 207 2.0 4.0 0.00 0.49 0.49 72 1017.9
20260830055018 61 198 2.0 3.0 0.00 0.49 0.49 73 1017.9
20260830054518 61 206 1.0 2.0 0.00 0.49 0.49 73 1017.9
20260830054018 61 189 2.0 3.0 0.00 0.49 0.49 74 1017.9
20260830053518 61 184 2.0 3.0 0.00 0.49 0.49 73 1017.9
20260830053021 61 203 2.0 3.0 0.00 0.49 0.49 72 1017.9
20260830052519 61 211 2.0 3.0 0.00 0.49 0.49 74 1017.8
20260830052019 61 218 2.0 3.0 0.00 0.49 0.49 72 1017.8
20260830051519 61 211 2.0 3.0 0.00 0.49 0.49 71 1017.7
20260830051019 61 225 2.0 3.0 0.00 0.49 0.49 72 1017.7
20260830050519 61 230 2.0 4.0 0.00 0.49 0.49 71 1017.7
20260830050017 61 217 2.0 4.0 0.00 0.49 0.49 72 1017.6
20260830045516 61 206 2.0 4.0 0.00 0.49 0.49 72 1017.6
20260830045016 61 211 1.0 4.0 0.00 0.49 0.49 74 1017.6
20260830044536 61 206 0.0 2.0 0.00 0.49 0.49 76 1017.6
20260830044018 61 218 0.0 2.0 0.00 0.49 0.49 77 1017.6
20260830043516 61 0.0 0.0 0.00 0.49 0.49 82 1017.6
20260830043016 61 249 0.0 2.0 0.00 0.49 0.49 79 1017.6
20260830042517 61 229 1.0 3.0 0.00 0.49 0.49 81 1017.6
20260830042016 62 241 1.0 4.0 0.00 0.49 0.49 81 1017.5
20260830041536 62 49 2.0 4.0 0.00 0.49 0.49 81 1017.4
20260830041016 62 30 1.0 4.0 0.00 0.49 0.49 79 1017.4
20260830040517 62 41 3.0 6.0 0.00 0.49 0.49 79 1017.3
20260830040017 61 60 2.0 6.0 0.00 0.49 0.49 81 1017.2
20260830035517 61 42 1.0 4.0 0.00 0.49 0.49 85 1017.2
20260830035018 60 113 0.0 2.0 0.00 0.49 0.49 87 1017.2
20260830034517 60 95 0.0 2.0 0.00 0.49 0.49 88 1017.1
20260830034017 60 330 0.0 2.0 0.00 0.49 0.49 88 1017.1
20260830033517 60 298 0.0 1.0 0.00 0.49 0.49 88 1017.0
20260830033017 61 280 0.0 2.0 0.00 0.49 0.49 88 1017.0
20260830032517 61 295 1.0 2.0 0.00 0.49 0.49 88 1016.9
20260830032018 61 284 0.0 2.0 0.00 0.49 0.49 86 1016.8
20260830031518 61 282 0.0 2.0 0.00 0.49 0.49 87 1016.7
20260830031017 61 325 0.0 2.0 0.00 0.49 0.49 88 1016.7
20260830030518 61 257 1.0 2.0 0.00 0.49 0.49 89 1016.7
20260830030018 61 295 0.0 1.0 0.00 0.49 0.49 88 1016.7
20260830025517 62 266 2.0 3.0 0.00 0.49 0.49 86 1016.7
20260830025038 62 241 1.0 2.0 0.00 0.49 0.49 83 1016.6
20260830024538 62 240 0.0 2.0 0.00 0.49 0.49 82 1016.6
20260830024037 62 201 0.0 2.0 0.00 0.49 0.49 83 1016.6
20260830023518 62 134 1.0 2.0 0.00 0.49 0.49 82 1016.6
20260830023018 62 80 1.0 4.0 0.00 0.49 0.49 83 1016.6
20260830022518 62 83 1.0 4.0 0.00 0.49 0.49 83 1016.6
20260830022018 62 74 1.0 4.0 0.01 0.49 0.49 84 1016.6
20260830021519 61 73 1.0 5.0 0.08 0.49 0.49 87 1016.6
20260830021018 61 287 0.0 2.0 0.09 0.49 0.49 88 1016.5
20260830020518 62 305 0.0 1.0 0.09 0.49 0.49 88 1016.5
20260830020019 62 299 0.0 1.0 0.10 0.49 0.49 87 1016.5
20260830015518 62 302 0.0 2.0 0.11 0.49 0.49 84 1016.4
20260830015016 63 73 1.0 3.0 0.11 0.49 0.49 80 1016.5
20260830014519 62 72 2.0 4.0 0.11 0.49 0.49 79 1016.5
20260830014019 62 152 2.0 4.0 0.11 0.49 0.49 79 1016.6
20260830013517 62 128 2.0 5.0 0.11 0.49 0.49 80 1016.6
20260830013016 62 116 2.0 8.0 0.11 0.49 0.49 83 1016.6
20260830012516 63 135 2.0 4.0 0.11 0.49 0.49 82 1016.7
20260830012036 65 193 2.0 5.0 0.10 0.48 0.48 78 1016.8
20260830011516 66 237 2.0 5.0 0.02 0.40 0.40 70 1016.6
20260830011016 66 124 2.0 3.0 0.02 0.40 0.40 68 1016.5
20260830010517 67 77 2.0 4.0 0.01 0.40 0.40 66 1016.4